Regional Weather Roundup
Issued by NWS

Home | Current Version | Previous Version | Graphics & Text | Print | Product List | Glossary On
Versions: 1 2 3 4 5 6 7 8 9 10 11 12 13 14 15 16 17 18 19 20 21 22 23 24 25 26 27
000
ASUS45 KBOU 231307
RWRCO

WEATHER ROUNDUP FOR COLORADO
NATIONAL WEATHER SERVICE DENVER/BOULDER CO
700 AM MDT THU OCT 23 2014

NOTE: "FAIR" INDICATES FEW OR NO CLOUDS BELOW 12000 FEET WITH NO
SIGNIFICANT WEATHER AND/OR OBSTRUCTIONS TO VISIBILITY.

COZ001>005-013-030-031-231400-
...NORTHWEST COLORADO...

CITY           SKY/WX    TMP DP  RH WIND       PRES   REMARKS
CRAIG          CLEAR     26  23  88 CALM      30.28F
HAYDEN         CLEAR     34  28  80 E10       30.28S WCI  26
MEEKER         CLEAR     34  31  88 E3        30.29S
MOUNT WERNER   NOT AVBL
STEAMBOAT SPGS CLEAR     30  29  95 CALM      30.30S
WALDEN         PTCLDY    37  30  75 S12G17    30.28F
$$

COZ006>008-011-231400-
...WEST CENTRAL VALLEYS...

CITY           SKY/WX    TMP DP  RH WIND       PRES   REMARKS
GRAND JUNCTION CLEAR     43  38  82 E12       30.22S
MONTROSE       CLEAR     38  33  82 SE7       30.28F
EAGLE          PTCLDY    30  30 100 CALM      30.36R
RIFLE          CLEAR     35  32  88 SE3       30.29R
DELTA          CLEAR     40  34  76 NE6       30.27S
NUCLA          NOT AVBL
$$

COZ017>023-064>068-231400-
...SOUTHWEST COLORADO...

CITY           SKY/WX    TMP DP  RH WIND       PRES   REMARKS
DURANGO        CLEAR     34  32  92 NE3       30.30S
CORTEZ         CLEAR     34  31  88 E5        30.27F WCI  30
PAGOSA SPRINGS CLEAR     34  34  99 CALM      30.35R
TELLURIDE      CLEAR    N/A N/A N/A E6        30.42S
WOLF CREEK PAS CLEAR     32  21  64 NW5         N/A  WCI  27
$$

COZ009-010-012-014-032>034-037-058>063-231400-
...CENTRAL COLORADO...

CITY           SKY/WX    TMP DP  RH WIND       PRES   REMARKS
ASPEN          CLEAR     32  27  81 SW7       30.33F WCI  26
BUENA VISTA    CLEAR     28  25  86 CALM      30.34R
COPPER MTN     CLEAR     34  25  69 W20       30.46S WCI  22
BERTHOUD PASS  FAIR      27  23  86 NW39G45   30.41F WCI   8
COTTONWOOD PAS CLEAR     43  21  42 W9G20     30.38R
GUNNISON       PTCLDY    28  23  80 CALM      30.40S
KREMMLING      FOG       30  28  93 CALM        N/A  VSB 1/4
LEADVILLE      CLEAR     31  23  72 CALM      30.39R
SALIDA         CLEAR     38  31  76 N5        30.40R
SUNLIGHT       CLEAR     36  30  80 CALM      30.45S
WILKERSON PASS NOT AVBL
$$

COZ069>075-231400-
...SAN LUIS VALLEY/SANGRE DE CRISTO MOUNTAINS...

CITY           SKY/WX    TMP DP  RH WIND       PRES   REMARKS
ALAMOSA        MOCLDY    28  24  85 CALM      30.34R
LA VETA PASS   CLEAR     34  28  80 S8        30.38R WCI  27
SAGUACHE       CLEAR     36  30  80 NW12      30.35S
$$

COZ035-036-038>040-231400-
...NORTHERN COLORADO FRONT RANGE...

CITY           SKY/WX    TMP DP  RH WIND       PRES   REMARKS
DENVER INTL AP PTCLDY    43  35  73 SW9       30.17R
DMNS CITY PARK   N/A     44  36  74 S6        30.17S
AURORA         PTCLDY    43  34  69 S8        30.19R
FRONT RANGE AP PTCLDY    48  36  61 SW9       30.18R
ERIE MUNI ARPT PTCLDY    38  35  90 CALM      30.16S
BOULDER MUN AP PTCLDY    43  34  70 W3        30.16S
CENTENNIAL     PTCLDY    44  32  62 CALM      30.19R
BROOMFIELD     PTCLDY    46  36  66 SW3       30.18R
FORT COLLINS   PTCLDY    39  34  81 SE5       30.17S
LONGMONT       PTCLDY    38  35  88 W3        30.18S FOG
$$

COZ041-046-047-076>085-087-088-231400-
...PIKES PEAK/PALMER DIVIDE AND SOUTHERN FOOTHILLS...

CITY           SKY/WX    TMP DP  RH WIND       PRES   REMARKS
COLO. SPRINGS  PTCLDY    42  34  73 NW7       30.22R
A. F. ACADEMY  CLEAR     36  30  80 N9        30.23R
ELLICOTT       NOT AVBL
FALCON         CLEAR     39  31  72 NW7       30.24R
FORT CARSON    CLEAR     42  36  80 NW10      30.19S
LIMON          PTCLDY    37  36  96 NW6       30.17R
MONUMENT HILL  CLEAR     36  30  80 SW7       30.23S
TRINIDAD       CLEAR     46  34  62 W14       30.19S
$$

COZ042>045-048>051-090-091-231400-
...NORTHEAST COLORADO...

CITY           SKY/WX    TMP DP  RH WIND       PRES   REMARKS
GREELEY ARPT   PTCLDY    36  27  69 CALM      30.17S
AKRON          MOCLDY    45  41  86 SW9       30.14R
BURLINGTON     CLEAR     44  40  85 W8        30.13S
WRAY           CLEAR     38  34  84 W8        30.11S
STERLING       MOCLDY    34  32  93 W5        30.13R WCI  30
HOLYOKE        CLEAR     41  34  75 SW7       30.10F
FORT MORGAN    MOCLDY    36  33  91 W8        30.15R
$$

COZ086-089-092>099-231400-
...SOUTHEAST COLORADO...

CITY           SKY/WX    TMP DP  RH WIND       PRES   REMARKS
PUEBLO         CLEAR     43  38  82 W6        30.16R
LA JUNTA       CLEAR     46  43  89 W8        30.13S
LAMAR          CLEAR     42  41  96 S8        30.10S
SPRINGFIELD      N/A     45  43  93 NW8       30.12R
$$



USA.gov is the U.S. government's official web portal to all federal, state and local government web resources and services.